| time (UTC) | temp F | wind direction | speed MPH | gust MPH | rain 1hr in | rain 24hr in | rain mn in | humidity % | barometer mb |
| 20260905181052 | 63 | 0.0 | 0.0 | 0.00 | 0.00 | 0.00 | 68 | 1022.5 | |
| 20260905180543 | 63 | 0.0 | 0.0 | 0.00 | 0.00 | 0.00 | 69 | 1022.5 | |
| 20260905175543 | 63 | 0.0 | 0.0 | 0.00 | 0.00 | 0.00 | 68 | 1022.5 | |
| 20260905175033 | 64 | 0.0 | 0.0 | 0.00 | 0.00 | 0.00 | 68 | 1022.4 | |
| 20260905174556 | 64 | 0.0 | 0.0 | 0.00 | 0.00 | 0.00 | 67 | 1022.4 | |
| 20260905174045 | 64 | 0.0 | 0.0 | 0.00 | 0.00 | 0.00 | 67 | 1022.4 | |
| 20260905173535 | 64 | 0.0 | 0.0 | 0.00 | 0.00 | 0.00 | 67 | 1022.4 | |
| 20260905173114 | 64 | 0.0 | 0.0 | 0.00 | 0.00 | 0.00 | 67 | 1022.4 | |
| 20260905172545 | 64 | 0.0 | 0.0 | 0.00 | 0.00 | 0.00 | 68 | 1022.4 | |
| 20260905172035 | 64 | 0.0 | 0.0 | 0.00 | 0.00 | 0.00 | 67 | 1022.2 | |
| 20260905171557 | 64 | 0.0 | 0.0 | 0.00 | 0.00 | 0.00 | 67 | 1022.2 | |
| 20260905171046 | 65 | 0.0 | 0.0 | 0.00 | 0.00 | 0.00 | 66 | 1022.1 | |
| 20260905170536 | 65 | 0.0 | 0.0 | 0.00 | 0.00 | 0.00 | 66 | 1022.2 | |
| 20260905170111 | 65 | 0.0 | 0.0 | 0.00 | 0.00 | 0.00 | 65 | 1021.9 | |
| 20260905165548 | 65 | 0.0 | 0.0 | 0.00 | 0.00 | 0.00 | 63 | 1021.9 | |
| 20260905165039 | 65 | 0.0 | 0.0 | 0.00 | 0.00 | 0.00 | 63 | 1021.8 | |
| 20260905164608 | 65 | 0.0 | 0.0 | 0.00 | 0.00 | 0.00 | 63 | 1021.8 | |
| 20260905164050 | 66 | 0.0 | 0.0 | 0.00 | 0.00 | 0.00 | 64 | 1021.7 | |
| 20260905163540 | 66 | 0.0 | 0.0 | 0.00 | 0.00 | 0.00 | 65 | 1021.7 | |
| 20260905163114 | 66 | 0.0 | 0.0 | 0.00 | 0.00 | 0.00 | 67 | 1021.6 | |
| 20260905162549 | 66 | 0.0 | 0.0 | 0.00 | 0.00 | 0.00 | 67 | 1021.6 | |
| 20260905162040 | 66 | 0.0 | 0.0 | 0.00 | 0.00 | 0.00 | 67 | 1021.6 | |
| 20260905161614 | 66 | 0.0 | 0.0 | 0.00 | 0.00 | 0.00 | 67 | 1021.5 | |
| 20260905161052 | 66 | 0.0 | 0.0 | 0.00 | 0.00 | 0.00 | 67 | 1021.4 | |
| 20260905160542 | 66 | 0.0 | 0.0 | 0.00 | 0.00 | 0.00 | 68 | 1021.4 | |
| 20260905155548 | 66 | 0.0 | 0.0 | 0.00 | 0.00 | 0.00 | 69 | 1021.2 | |
| 20260905155039 | 66 | 0.0 | 0.0 | 0.00 | 0.00 | 0.00 | 69 | 1021.3 | |
| 20260905154549 | 66 | 0.0 | 0.0 | 0.00 | 0.00 | 0.00 | 69 | 1021.1 | |
| 20260905154041 | 66 | 0.0 | 0.0 | 0.00 | 0.00 | 0.00 | 69 | 1021.1 | |
| 20260905153529 | 66 | 0.0 | 0.0 | 0.00 | 0.00 | 0.00 | 69 | 1021.1 | |
| 20260905153049 | 66 | 0.0 | 0.0 | 0.00 | 0.00 | 0.00 | 68 | 1021.0 | |
| 20260905152540 | 66 | 0.0 | 0.0 | 0.00 | 0.00 | 0.00 | 68 | 1021.0 | |
| 20260905152033 | 66 | 0.0 | 0.0 | 0.00 | 0.00 | 0.00 | 68 | 1021.0 | |
| 20260905151551 | 66 | 0.0 | 0.0 | 0.00 | 0.00 | 0.00 | 68 | 1020.9 | |
| 20260905151042 | 67 | 0.0 | 0.0 | 0.00 | 0.00 | 0.00 | 68 | 1020.8 | |
| 20260905150534 | 67 | 0.0 | 0.0 | 0.00 | 0.00 | 0.00 | 66 | 1020.7 | |
| 20260905150056 | 67 | 0.0 | 0.0 | 0.00 | 0.03 | 0.00 | 65 | 1020.7 | |
| 20260905145542 | 68 | 0.0 | 0.0 | 0.00 | 0.03 | 0.00 | 63 | 1020.6 | |
| 20260905145031 | 68 | 0.0 | 0.0 | 0.00 | 0.03 | 0.00 | 59 | 1020.5 | |
| 20260905144552 | 68 | 0.0 | 0.0 | 0.00 | 0.03 | 0.00 | 58 | 1020.1 | |
| 20260905144042 | 69 | 0.0 | 0.0 | 0.00 | 0.03 | 0.00 | 56 | 1020.1 | |
| 20260905143532 | 69 | 0.0 | 0.0 | 0.00 | 0.03 | 0.00 | 56 | 1020.0 | |
| 20260905143052 | 70 | 0.0 | 0.0 | 0.00 | 0.03 | 0.00 | 54 | 1019.9 | |
| 20260905142545 | 71 | 0.0 | 0.0 | 0.00 | 0.03 | 0.00 | 56 | 1019.9 | |
| 20260905142032 | 69 | 0.0 | 0.0 | 0.00 | 0.03 | 0.00 | 57 | 1019.9 | |
| 20260905141553 | 70 | 0.0 | 0.0 | 0.00 | 0.03 | 0.00 | 56 | 1020.0 | |
| 20260905141042 | 69 | 0.0 | 0.0 | 0.00 | 0.03 | 0.00 | 58 | 1019.9 | |
| 20260905140532 | 69 | 0.0 | 0.0 | 0.00 | 0.03 | 0.00 | 57 | 1019.9 | |
| 20260905140055 | 68 | 0.0 | 0.0 | 0.00 | 0.06 | 0.00 | 59 | 1019.9 | |
| 20260905135544 | 69 | 0.0 | 0.0 | 0.00 | 0.06 | 0.00 | 59 | 1019.7 | |
| 20260905135033 | 69 | 0.0 | 0.0 | 0.00 | 0.06 | 0.00 | 57 | 1019.7 | |
| 20260905134557 | 70 | 0.0 | 0.0 | 0.00 | 0.06 | 0.00 | 55 | 1019.6 | |
| 20260905134046 | 71 | 0.0 | 0.0 | 0.00 | 0.06 | 0.00 | 54 | 1019.5 | |
| 20260905133536 | 72 | 0.0 | 0.0 | 0.00 | 0.06 | 0.00 | 55 | 1019.6 | |
| 20260905133102 | 71 | 0.0 | 0.0 | 0.00 | 0.06 | 0.00 | 60 | 1019.5 | |
| 20260905132546 | 71 | 0.0 | 0.0 | 0.00 | 0.06 | 0.00 | 57 | 1019.4 | |
| 20260905132036 | 71 | 0.0 | 0.0 | 0.00 | 0.06 | 0.00 | 56 | 1019.5 | |
| 20260905131557 | 71 | 0.0 | 0.0 | 0.00 | 0.06 | 0.00 | 59 | 1019.4 | |
| 20260905131047 | 71 | 0.0 | 0.0 | 0.00 | 0.06 | 0.00 | 58 | 1019.4 | |
| 20260905130537 | 70 | 0.0 | 0.0 | 0.00 | 0.06 | 0.00 | 58 | 1019.3 | |
| 20260905130057 | 70 | 0.0 | 0.0 | 0.00 | 0.16 | 0.00 | 55 | 1019.4 | |
| 20260905125551 | 71 | 0.0 | 0.0 | 0.00 | 0.16 | 0.00 | 58 | 1019.3 | |
| 20260905125038 | 71 | 0.0 | 0.0 | 0.00 | 0.16 | 0.00 | 61 | 1019.4 | |
| 20260905124559 | 70 | 0.0 | 0.0 | 0.00 | 0.16 | 0.00 | 61 | 1019.4 | |
| 20260905124048 | 69 | 0.0 | 0.0 | 0.00 | 0.16 | 0.00 | 61 | 1019.4 | |
| 20260905123538 | 69 | 0.0 | 0.0 | 0.00 | 0.16 | 0.00 | 61 | 1019.3 | |
| 20260905123108 | 69 | 0.0 | 0.0 | 0.00 | 0.16 | 0.00 | 60 | 1019.2 | |
| 20260905122549 | 70 | 0.0 | 0.0 | 0.00 | 0.16 | 0.00 | 59 | 1019.1 | |
| 20260905122039 | 70 | 0.0 | 0.0 | 0.00 | 0.16 | 0.00 | 60 | 1019.1 | |
| 20260905121600 | 69 | 0.0 | 0.0 | 0.00 | 0.16 | 0.00 | 63 | 1019.0 | |
| 20260905121050 | 68 | 0.0 | 0.0 | 0.00 | 0.16 | 0.00 | 63 | 1019.1 | |
| 20260905120540 | 68 | 0.0 | 0.0 | 0.00 | 0.16 | 0.00 | 61 | 1018.9 | |
| 20260905115550 | 70 | 0.0 | 0.0 | 0.00 | 0.25 | 0.00 | 61 | 1018.9 | |
| 20260905115044 | 70 | 0.0 | 0.0 | 0.00 | 0.25 | 0.00 | 60 | 1018.9 | |
| 20260905114510 | 68 | 0.0 | 0.0 | 0.00 | 0.25 | 0.00 | 63 | 1018.8 | |
| 20260905114101 | 67 | 0.0 | 0.0 | 0.00 | 0.25 | 0.00 | 64 | 1018.9 | |
| 20260905113552 | 67 | 0.0 | 0.0 | 0.00 | 0.25 | 0.00 | 63 | 1018.7 | |
| 20260905113012 | 68 | 0.0 | 0.0 | 0.00 | 0.25 | 0.00 | 64 | 1018.7 | |
| 20260905112502 | 68 | 0.0 | 0.0 | 0.00 | 0.25 | 0.00 | 63 | 1018.7 | |
| 20260905112057 | 68 | 0.0 | 0.0 | 0.00 | 0.25 | 0.00 | 63 | 1018.6 | |
| 20260905111513 | 69 | 0.0 | 0.0 | 0.00 | 0.25 | 0.00 | 64 | 1018.5 | |
| 20260905111004 | 69 | 0.0 | 0.0 | 0.00 | 0.25 | 0.00 | 64 | 1018.4 | |
| 20260905110555 | 69 | 0.0 | 0.0 | 0.00 | 0.25 | 0.00 | 68 | 1018.3 | |
| 20260905110024 | 67 | 0.0 | 0.0 | 0.00 | 0.26 | 0.00 | 68 | 1018.2 | |
| 20260905105517 | 67 | 0.0 | 0.0 | 0.00 | 0.26 | 0.00 | 68 | 1018.3 | |
| 20260905105004 | 66 | 0.0 | 0.0 | 0.00 | 0.26 | 0.00 | 69 | 1018.3 | |
| 20260905104526 | 67 | 0.0 | 0.0 | 0.00 | 0.26 | 0.00 | 66 | 1018.2 | |
| 20260905104019 | 67 | 0.0 | 0.0 | 0.00 | 0.26 | 0.00 | 66 | 1018.1 | |
| 20260905103506 | 67 | 0.0 | 0.0 | 0.00 | 0.26 | 0.00 | 68 | 1018.0 | |
| 20260905103026 | 67 | 0.0 | 0.0 | 0.00 | 0.26 | 0.00 | 68 | 1018.0 | |
| 20260905102516 | 68 | 0.0 | 0.0 | 0.00 | 0.26 | 0.00 | 67 | 1017.8 | |
| 20260905102006 | 68 | 0.0 | 0.0 | 0.00 | 0.26 | 0.00 | 67 | 1018.0 | |
| 20260905101532 | 67 | 0.0 | 0.0 | 0.00 | 0.26 | 0.00 | 69 | 1017.9 | |
| 20260905101017 | 67 | 0.0 | 0.0 | 0.00 | 0.26 | 0.00 | 71 | 1017.8 | |
| 20260905100508 | 66 | 0.0 | 0.0 | 0.00 | 0.26 | 0.00 | 70 | 1017.8 | |
| 20260905095526 | 67 | 0.0 | 0.0 | 0.00 | 0.37 | 0.00 | 71 | 1017.8 | |
| 20260905095009 | 67 | 0.0 | 0.0 | 0.00 | 0.37 | 0.00 | 72 | 1017.6 | |
| 20260905094544 | 66 | 0.0 | 0.0 | 0.00 | 0.37 | 0.00 | 71 | 1017.7 | |
| 20260905094020 | 66 | 0.0 | 0.0 | 0.00 | 0.37 | 0.00 | 72 | 1017.7 | |
| 20260905093510 | 67 | 0.0 | 0.0 | 0.00 | 0.37 | 0.00 | 74 | 1017.6 | |
| 20260905093030 | 66 | 0.0 | 0.0 | 0.00 | 0.37 | 0.00 | 76 | 1017.4 | |
| 20260905092524 | 66 | 0.0 | 0.0 | 0.00 | 0.37 | 0.00 | 75 | 1017.5 | |
| 20260905092014 | 66 | 0.0 | 0.0 | 0.00 | 0.37 | 0.00 | 76 | 1017.4 | |
| 20260905091554 | 65 | 0.0 | 0.0 | 0.00 | 0.37 | 0.00 | 77 | 1017.4 | |
| 20260905091031 | 65 | 0.0 | 0.0 | 0.00 | 0.37 | 0.00 | 76 | 1017.4 | |
| 20260905090520 | 65 | 0.0 | 0.0 | 0.00 | 0.37 | 0.00 | 77 | 1017.3 | |
| 20260905090041 | 66 | 0.0 | 0.0 | 0.00 | 0.37 | 0.00 | 76 | 1017.3 | |
| 20260905085534 | 65 | 0.0 | 0.0 | 0.00 | 0.37 | 0.00 | 76 | 1017.2 | |
| 20260905085021 | 65 | 0.0 | 0.0 | 0.00 | 0.37 | 0.00 | 76 | 1017.3 | |
| 20260905084502 | 65 | 0.0 | 0.0 | 0.00 | 0.37 | 0.00 | 76 | 1017.1 | |
| 20260905084055 | 65 | 0.0 | 0.0 | 0.00 | 0.37 | 0.00 | 77 | 1017.1 | |
| 20260905083545 | 66 | 0.0 | 0.0 | 0.00 | 0.37 | 0.00 | 77 | 1017.1 | |
| 20260905083003 | 65 | 0.0 | 0.0 | 0.00 | 0.37 | 0.00 | 78 | 1017.1 | |
| 20260905082554 | 65 | 0.0 | 0.0 | 0.00 | 0.37 | 0.00 | 78 | 1017.1 | |
| 20260905082045 | 65 | 0.0 | 0.0 | 0.00 | 0.37 | 0.00 | 79 | 1017.0 | |
| 20260905081555 | 65 | 0.0 | 0.0 | 0.00 | 0.37 | 0.00 | 79 | 1017.0 | |
| 20260905081045 | 64 | 0.0 | 0.0 | 0.00 | 0.37 | 0.00 | 80 | 1017.0 | |
| 20260905080537 | 64 | 0.0 | 0.0 | 0.00 | 0.37 | 0.00 | 79 | 1016.9 | |
| 20260905080056 | 63 | 0.0 | 0.0 | 0.00 | 0.37 | 0.00 | 80 | 1016.8 | |
| 20260905075547 | 63 | 0.0 | 0.0 | 0.00 | 0.37 | 0.00 | 81 | 1016.8 | |
| 20260905075038 | 63 | 0.0 | 0.0 | 0.00 | 0.37 | 0.00 | 81 | 1016.7 | |
| 20260905074558 | 63 | 0.0 | 0.0 | 0.00 | 0.37 | 0.00 | 81 | 1016.8 | |
| 20260905074046 | 63 | 0.0 | 0.0 | 0.00 | 0.37 | 0.00 | 81 | 1016.7 | |
| 20260905073537 | 63 | 0.0 | 0.0 | 0.00 | 0.37 | 0.00 | 81 | 1016.7 | |
| 20260905073059 | 63 | 0.0 | 0.0 | 0.00 | 0.37 | 0.00 | 81 | 1016.7 | |
| 20260905072551 | 63 | 0.0 | 0.0 | 0.00 | 0.37 | 0.00 | 81 | 1016.7 | |
| 20260905072037 | 62 | 0.0 | 0.0 | 0.00 | 0.37 | 0.00 | 82 | 1016.6 | |
| 20260905071608 | 62 | 0.0 | 0.0 | 0.00 | 0.37 | 0.00 | 82 | 1016.5 | |
| 20260905071048 | 61 | 0.0 | 0.0 | 0.00 | 0.37 | 0.00 | 83 | 1016.4 | |
| 20260905070539 | 60 | 0.0 | 0.0 | 0.00 | 0.37 | 0.00 | 84 | 1016.3 | |
| 20260905070101 | 60 | 0.0 | 0.0 | 0.00 | 0.37 | 0.00 | 84 | 1016.2 | |
| 20260905065549 | 60 | 0.0 | 0.0 | 0.00 | 0.37 | 0.00 | 84 | 1016.1 | |
| 20260905065039 | 60 | 0.0 | 0.0 | 0.00 | 0.37 | 0.00 | 84 | 1016.2 | |
| 20260905064619 | 59 | 0.0 | 0.0 | 0.00 | 0.37 | 0.00 | 84 | 1016.1 | |
| 20260905064050 | 59 | 0.0 | 0.0 | 0.00 | 0.37 | 0.00 | 84 | 1016.1 | |
| 20260905063540 | 59 | 0.0 | 0.0 | 0.00 | 0.37 | 0.00 | 84 | 1016.1 | |
| 20260905063053 | 59 | 0.0 | 0.0 | 0.00 | 0.37 | 0.00 | 85 | 1016.1 | |
| 20260905062540 | 59 | 0.0 | 0.0 | 0.00 | 0.37 | 0.00 | 85 | 1016.1 | |
| 20260905062031 | 59 | 0.0 | 0.0 | 0.00 | 0.37 | 0.00 | 85 | 1016.0 | |
| 20260905061553 | 58 | 0.0 | 0.0 | 0.00 | 0.37 | 0.00 | 86 | 1015.9 | |
| 20260905061042 | 58 | 0.0 | 0.0 | 0.00 | 0.37 | 0.00 | 86 | 1015.9 | |
| 20260905060531 | 58 | 0.0 | 0.0 | 0.00 | 0.37 | 0.00 | 86 | 1015.7 | |
| 20260905060054 | 57 | 0.0 | 0.0 | 0.00 | 0.37 | 0.00 | 87 | 1015.7 | |
| 20260905055544 | 57 | 0.0 | 0.0 | 0.00 | 0.37 | 0.00 | 87 | 1015.7 | |
| 20260905055034 | 57 | 0.0 | 0.0 | 0.00 | 0.37 | 0.00 | 87 | 1015.6 | |
| 20260905054658 | 57 | 0.0 | 0.0 | 0.00 | 0.37 | 0.00 | 87 | 1015.7 | |
| 20260905054044 | 56 | 0.0 | 0.0 | 0.00 | 0.37 | 0.00 | 87 | 1015.5 | |
| 20260905053539 | 56 | 0.0 | 0.0 | 0.00 | 0.37 | 0.00 | 87 | 1015.5 | |
| 20260905053055 | 56 | 0.0 | 0.0 | 0.00 | 0.37 | 0.00 | 87 | 1015.5 | |
| 20260905052545 | 56 | 0.0 | 0.0 | 0.00 | 0.37 | 0.00 | 87 | 1015.3 | |
| 20260905052035 | 56 | 0.0 | 0.0 | 0.00 | 0.37 | 0.00 | 87 | 1015.3 | |
| 20260905051557 | 56 | 0.0 | 0.0 | 0.00 | 0.37 | 0.00 | 87 | 1015.3 | |
| 20260905051046 | 56 | 0.0 | 0.0 | 0.00 | 0.37 | 0.00 | 87 | 1015.3 | |
| 20260905050536 | 56 | 0.0 | 0.0 | 0.00 | 0.37 | 0.00 | 87 | 1015.2 | |
| 20260905050056 | 56 | 0.0 | 0.0 | 0.00 | 0.37 | 0.00 | 87 | 1015.2 | |
| 20260905045545 | 56 | 0.0 | 0.0 | 0.00 | 0.37 | 0.00 | 87 | 1015.2 | |
| 20260905045035 | 56 | 0.0 | 0.0 | 0.00 | 0.37 | 0.00 | 87 | 1015.2 | |
| 20260905044607 | 56 | 0.0 | 0.0 | 0.00 | 0.37 | 0.00 | 87 | 1015.3 | |
| 20260905044046 | 56 | 0.0 | 0.0 | 0.00 | 0.37 | 0.00 | 87 | 1015.3 | |
| 20260905043536 | 56 | 0.0 | 0.0 | 0.00 | 0.37 | 0.00 | 87 | 1015.0 | |
| 20260905043103 | 56 | 0.0 | 0.0 | 0.00 | 0.37 | 0.00 | 87 | 1015.0 | |
| 20260905042544 | 56 | 0.0 | 0.0 | 0.00 | 0.37 | 0.00 | 87 | 1015.0 | |
| 20260905042034 | 57 | 0.0 | 0.0 | 0.00 | 0.37 | 0.00 | 87 | 1015.0 | |
| 20260905041555 | 56 | 0.0 | 0.0 | 0.00 | 0.37 | 0.00 | 87 | 1015.0 | |
| 20260905041045 | 56 | 0.0 | 0.0 | 0.00 | 0.37 | 0.00 | 87 | 1015.0 | |
| 20260905040537 | 57 | 0.0 | 0.0 | 0.00 | 0.37 | 0.00 | 87 | 1014.8 | |
| 20260905040106 | 57 | 0.0 | 0.0 | 0.00 | 0.37 | 0.00 | 87 | 1014.8 | |
| 20260905035545 | 57 | 0.0 | 0.0 | 0.00 | 0.37 | 0.00 | 87 | 1014.7 | |
| 20260905035034 | 57 | 0.0 | 0.0 | 0.00 | 0.37 | 0.00 | 86 | 1014.7 | |
| 20260905034602 | 57 | 0.0 | 0.0 | 0.00 | 0.37 | 0.00 | 86 | 1014.7 | |
| 20260905034046 | 57 | 0.0 | 0.0 | 0.00 | 0.37 | 0.00 | 86 | 1014.7 | |
| 20260905033535 | 57 | 0.0 | 0.0 | 0.00 | 0.37 | 0.00 | 86 | 1014.7 | |
| 20260905033056 | 57 | 0.0 | 0.0 | 0.00 | 0.37 | 0.00 | 86 | 1014.6 | |
| 20260905032551 | 57 | 0.0 | 0.0 | 0.00 | 0.37 | 0.00 | 86 | 1014.6 | |
| 20260905032038 | 57 | 0.0 | 0.0 | 0.00 | 0.37 | 0.00 | 87 | 1014.6 | |
| 20260905031557 | 57 | 0.0 | 0.0 | 0.00 | 0.37 | 0.00 | 87 | 1014.4 | |
| 20260905031048 | 56 | 0.0 | 0.0 | 0.00 | 0.37 | 0.00 | 87 | 1014.5 | |
| 20260905030537 | 56 | 0.0 | 0.0 | 0.00 | 0.37 | 0.00 | 86 | 1014.5 | |
| 20260905030058 | 56 | 0.0 | 0.0 | 0.00 | 0.37 | 0.00 | 86 | 1014.5 | |
| 20260905025549 | 57 | 0.0 | 0.0 | 0.00 | 0.37 | 0.00 | 86 | 1014.5 | |
| 20260905025038 | 57 | 0.0 | 0.0 | 0.00 | 0.37 | 0.00 | 86 | 1014.4 | |
| 20260905024610 | 57 | 0.0 | 0.0 | 0.00 | 0.37 | 0.00 | 86 | 1014.4 | |
| 20260905024049 | 57 | 0.0 | 0.0 | 0.00 | 0.37 | 0.00 | 86 | 1014.4 | |
| 20260905023539 | 57 | 0.0 | 0.0 | 0.00 | 0.37 | 0.00 | 86 | 1014.4 | |
| 20260905023100 | 57 | 0.0 | 0.0 | 0.00 | 0.37 | 0.00 | 86 | 1014.4 | |
| 20260905022550 | 57 | 0.0 | 0.0 | 0.00 | 0.37 | 0.00 | 87 | 1014.3 | |
| 20260905022040 | 57 | 0.0 | 0.0 | 0.00 | 0.37 | 0.00 | 87 | 1014.2 | |
| 20260905021558 | 57 | 0.0 | 0.0 | 0.00 | 0.37 | 0.00 | 87 | 1014.3 | |
| 20260905021048 | 57 | 0.0 | 0.0 | 0.00 | 0.37 | 0.00 | 87 | 1014.2 | |
| 20260905020538 | 56 | 0.0 | 0.0 | 0.00 | 0.37 | 0.00 | 86 | 1014.3 | |
| 20260905020059 | 57 | 0.0 | 0.0 | 0.00 | 0.37 | 0.00 | 86 | 1014.2 | |
| 20260905015548 | 57 | 0.0 | 0.0 | 0.00 | 0.37 | 0.00 | 86 | 1014.1 | |
| 20260905015039 | 57 | 0.0 | 0.0 | 0.00 | 0.37 | 0.00 | 86 | 1014.0 | |
| 20260905014600 | 57 | 0.0 | 0.0 | 0.00 | 0.37 | 0.00 | 86 | 1013.9 | |
| 20260905014050 | 57 | 0.0 | 0.0 | 0.00 | 0.37 | 0.00 | 86 | 1014.0 | |
| 20260905013542 | 57 | 0.0 | 0.0 | 0.00 | 0.37 | 0.00 | 86 | 1013.9 | |
| 20260905013104 | 57 | 0.0 | 0.0 | 0.00 | 0.37 | 0.00 | 86 | 1013.9 | |
| 20260905012550 | 57 | 0.0 | 0.0 | 0.00 | 0.37 | 0.00 | 87 | 1013.9 | |
| 20260905012040 | 57 | 0.0 | 0.0 | 0.00 | 0.37 | 0.00 | 87 | 1013.8 | |
| 20260905011601 | 57 | 0.0 | 0.0 | 0.00 | 0.37 | 0.00 | 87 | 1013.9 | |
| 20260905011053 | 57 | 0.0 | 0.0 | 0.00 | 0.37 | 0.00 | 87 | 1013.8 | |
| 20260905010541 | 57 | 0.0 | 0.0 | 0.00 | 0.37 | 0.00 | 87 | 1013.8 | |
| 20260905010109 | 57 | 0.0 | 0.0 | 0.00 | 0.37 | 0.00 | 88 | 1013.7 | |
| 20260905005551 | 57 | 0.0 | 0.0 | 0.00 | 0.37 | 0.00 | 88 | 1013.7 | |
| 20260905005042 | 56 | 0.0 | 0.0 | 0.00 | 0.37 | 0.00 | 87 | 1013.8 | |
| 20260905004601 | 56 | 0.0 | 0.0 | 0.00 | 0.37 | 0.00 | 87 | 1013.8 | |
| 20260905004052 | 56 | 0.0 | 0.0 | 0.00 | 0.37 | 0.00 | 86 | 1013.7 | |
| 20260905003542 | 56 | 0.0 | 0.0 | 0.00 | 0.37 | 0.00 | 86 | 1013.9 | |
| 20260905003052 | 57 | 0.0 | 0.0 | 0.00 | 0.37 | 0.00 | 86 | 1013.8 | |
| 20260905002541 | 57 | 0.0 | 0.0 | 0.00 | 0.37 | 0.00 | 86 | 1013.8 | |
| 20260905002032 | 57 | 0.0 | 0.0 | 0.00 | 0.37 | 0.00 | 86 | 1013.9 | |
| 20260905001553 | 57 | 0.0 | 0.0 | 0.00 | 0.37 | 0.00 | 86 | 1013.9 | |
| 20260905001042 | 57 | 0.0 | 0.0 | 0.00 | 0.37 | 0.00 | 86 | 1013.7 | |
| 20260905000532 | 57 | 0.0 | 0.0 | 0.00 | 0.37 | 0.00 | 85 | 1013.7 | |
| 20260905000052 | 58 | 0.0 | 0.0 | 0.00 | 0.37 | 0.00 | 86 | 1013.7 | |
| 20260904235541 | 58 | 0.0 | 0.0 | 0.00 | 0.37 | 0.00 | 85 | 1013.6 | |
| 20260904235032 | 58 | 0.0 | 0.0 | 0.00 | 0.37 | 0.00 | 85 | 1013.6 | |
| 20260904234553 | 58 | 0.0 | 0.0 | 0.00 | 0.37 | 0.00 | 85 | 1013.7 | |
| 20260904234045 | 58 | 0.0 | 0.0 | 0.00 | 0.37 | 0.00 | 85 | 1013.7 | |
| 20260904233535 | 58 | 0.0 | 0.0 | 0.00 | 0.37 | 0.00 | 85 | 1013.6 | |
| 20260904233055 | 58 | 0.0 | 0.0 | 0.00 | 0.37 | 0.00 | 85 | 1013.5 | |
| 20260904232548 | 58 | 0.0 | 0.0 | 0.00 | 0.37 | 0.00 | 85 | 1013.5 | |
| 20260904232034 | 58 | 0.0 | 0.0 | 0.00 | 0.37 | 0.00 | 85 | 1013.5 | |
| 20260904231605 | 58 | 0.0 | 0.0 | 0.00 | 0.37 | 0.00 | 85 | 1013.5 | |
| 20260904231044 | 59 | 0.0 | 0.0 | 0.00 | 0.37 | 0.00 | 85 | 1013.5 | |
| 20260904230534 | 59 | 0.0 | 0.0 | 0.00 | 0.37 | 0.00 | 84 | 1013.5 | |
| 20260904230005 | 59 | 0.0 | 0.0 | 0.00 | 0.37 | 0.00 | 84 | 1013.4 | |
| 20260904225555 | 59 | 0.0 | 0.0 | 0.00 | 0.37 | 0.00 | 84 | 1013.4 | |
| 20260904225045 | 59 | 0.0 | 0.0 | 0.00 | 0.37 | 0.00 | 84 | 1013.5 | |
| 20260904224503 | 59 | 0.0 | 0.0 | 0.00 | 0.37 | 0.00 | 83 | 1013.5 | |
| 20260904224056 | 59 | 0.0 | 0.0 | 0.00 | 0.37 | 0.00 | 83 | 1013.5 | |
| 20260904223546 | 59 | 0.0 | 0.0 | 0.00 | 0.37 | 0.00 | 83 | 1013.4 | |
| 20260904223004 | 59 | 0.0 | 0.0 | 0.00 | 0.37 | 0.00 | 83 | 1013.3 | |
| 20260904222556 | 59 | 0.0 | 0.0 | 0.00 | 0.37 | 0.00 | 83 | 1013.3 | |
| 20260904222048 | 59 | 0.0 | 0.0 | 0.00 | 0.37 | 0.00 | 83 | 1013.2 | |
| 20260904221505 | 59 | 0.0 | 0.0 | 0.00 | 0.37 | 0.00 | 82 | 1013.1 | |
| 20260904221058 | 60 | 0.0 | 0.0 | 0.00 | 0.37 | 0.00 | 82 | 1013.2 | |
| 20260904220548 | 60 | 0.0 | 0.0 | 0.00 | 0.37 | 0.00 | 82 | 1013.1 | |
| 20260904220017 | 60 | 0.0 | 0.0 | 0.00 | 0.37 | 0.37 | 82 | 1013.1 | |
| 20260904215507 | 60 | 0.0 | 0.0 | 0.00 | 0.37 | 0.37 | 82 | 1013.0 | |
| 20260904215058 | 60 | 0.0 | 0.0 | 0.00 | 0.37 | 0.37 | 82 | 1013.0 | |
| 20260904214519 | 60 | 0.0 | 0.0 | 0.00 | 0.37 | 0.37 | 81 | 1012.9 | |
| 20260904214008 | 60 | 0.0 | 0.0 | 0.00 | 0.37 | 0.37 | 81 | 1012.8 | |
| 20260904213559 | 60 | 0.0 | 0.0 | 0.00 | 0.37 | 0.37 | 82 | 1012.7 | |
| 20260904213017 | 61 | 0.0 | 0.0 | 0.00 | 0.37 | 0.37 | 81 | 1012.6 | |
| 20260904212507 | 61 | 0.0 | 0.0 | 0.00 | 0.37 | 0.37 | 81 | 1012.7 | |
| 20260904212058 | 61 | 0.0 | 0.0 | 0.00 | 0.37 | 0.37 | 81 | 1012.6 | |
| 20260904211527 | 61 | 0.0 | 0.0 | 0.00 | 0.37 | 0.37 | 81 | 1012.6 | |
| 20260904211016 | 61 | 0.0 | 0.0 | 0.00 | 0.37 | 0.37 | 81 | 1012.5 | |
| 20260904210506 | 61 | 0.0 | 0.0 | 0.00 | 0.37 | 0.37 | 81 | 1012.4 | |
| 20260904210030 | 61 | 0.0 | 0.0 | 0.00 | 0.37 | 0.37 | 81 | 1012.6 | |
| 20260904205517 | 61 | 0.0 | 0.0 | 0.00 | 0.37 | 0.37 | 81 | 1012.6 | |
| 20260904205006 | 61 | 0.0 | 0.0 | 0.00 | 0.37 | 0.37 | 82 | 1012.6 | |
| 20260904204527 | 61 | 0.0 | 0.0 | 0.00 | 0.37 | 0.37 | 82 | 1012.7 | |
| 20260904204021 | 61 | 0.0 | 0.0 | 0.00 | 0.37 | 0.37 | 82 | 1012.7 | |
| 20260904203507 | 61 | 0.0 | 0.0 | 0.00 | 0.37 | 0.37 | 82 | 1012.8 | |
| 20260904203030 | 61 | 0.0 | 0.0 | 0.00 | 0.37 | 0.37 | 82 | 1012.6 | |
| 20260904202517 | 62 | 0.0 | 0.0 | 0.00 | 0.37 | 0.37 | 82 | 1012.6 | |
| 20260904202010 | 62 | 0.0 | 0.0 | 0.00 | 0.37 | 0.37 | 82 | 1012.5 | |
| 20260904201525 | 62 | 0.0 | 0.0 | 0.00 | 0.37 | 0.37 | 81 | 1012.5 | |
| 20260904201014 | 62 | 0.0 | 0.0 | 0.00 | 0.37 | 0.37 | 81 | 1012.4 | |
| 20260904200504 | 62 | 0.0 | 0.0 | 0.00 | 0.37 | 0.37 | 81 | 1012.5 | |
| 20260904200112 | 62 | 0.0 | 0.0 | 0.00 | 0.37 | 0.37 | 81 | 1012.4 | |
| 20260904195550 | 62 | 0.0 | 0.0 | 0.00 | 0.37 | 0.37 | 81 | 1012.5 | |
| 20260904195040 | 62 | 0.0 | 0.0 | 0.00 | 0.37 | 0.37 | 81 | 1012.4 | |
| 20260904194558 | 62 | 0.0 | 0.0 | 0.00 | 0.37 | 0.37 | 81 | 1012.2 | |
| 20260904194048 | 62 | 0.0 | 0.0 | 0.00 | 0.37 | 0.37 | 81 | 1012.2 | |
| 20260904193538 | 62 | 0.0 | 0.0 | 0.00 | 0.37 | 0.37 | 81 | 1012.1 | |
| 20260904193058 | 63 | 0.0 | 0.0 | 0.00 | 0.37 | 0.37 | 82 | 1012.0 | |
| 20260904192548 | 63 | 0.0 | 0.0 | 0.00 | 0.37 | 0.37 | 82 | 1012.0 | |
| 20260904192037 | 63 | 0.0 | 0.0 | 0.00 | 0.37 | 0.37 | 82 | 1011.9 | |
| 20260904191559 | 63 | 0.0 | 0.0 | 0.00 | 0.37 | 0.37 | 82 | 1011.9 | |
| 20260904191048 | 63 | 0.0 | 0.0 | 0.00 | 0.37 | 0.37 | 83 | 1011.7 | |
| 20260904190539 | 63 | 0.0 | 0.0 | 0.00 | 0.37 | 0.37 | 83 | 1011.6 | |
| 20260904190101 | 63 | 0.0 | 0.0 | 0.00 | 0.37 | 0.37 | 83 | 1011.6 | |
| 20260904185550 | 63 | 0.0 | 0.0 | 0.00 | 0.37 | 0.37 | 84 | 1011.6 | |
| 20260904185040 | 63 | 0.0 | 0.0 | 0.00 | 0.37 | 0.37 | 84 | 1011.3 | |
| 20260904184623 | 63 | 0.0 | 0.0 | 0.00 | 0.37 | 0.37 | 85 | 1011.2 | |
| 20260904184051 | 63 | 0.0 | 0.0 | 0.00 | 0.37 | 0.37 | 86 | 1011.2 | |
| 20260904183545 | 63 | 0.0 | 0.0 | 0.00 | 0.37 | 0.37 | 86 | 1011.2 | |
| 20260904183100 | 63 | 0.0 | 0.0 | 0.00 | 0.37 | 0.37 | 86 | 1011.0 | |
| 20260904182555 | 63 | 0.0 | 0.0 | 0.00 | 0.37 | 0.37 | 86 | 1011.0 | |
| 20260904182040 | 63 | 0.0 | 0.0 | 0.00 | 0.37 | 0.37 | 86 | 1010.9 | |
| 20260904181601 | 63 | 0.0 | 0.0 | 0.00 | 0.37 | 0.37 | 86 | 1010.9 |